Time,TemperatureF,DewpointF,PressureIn,WindDirection,WindDirectionDegrees,WindSpeedMPH,WindSpeedGustMPH,Humidity,HourlyPrecipIn,Conditions,Clouds,dailyrainin,SolarRadiationWatts/m^2,SoftwareType,DateUTC
2013-03-17 00:00:00,62.7,53.2,30.13,SW,216,4.0,4.0,71,0.00,,,0.00,0,Wunderground v.1.15,2013-03-17 04:00:00,
2013-03-17 00:02:00,62.6,53.4,30.13,SSW,204,4.0,4.0,72,0.00,,,0.00,0,Wunderground v.1.15,2013-03-17 04:02:00,
2013-03-17 00:06:00,62.4,53.3,30.13,SW,217,4.0,4.0,72,0.00,,,0.00,0,Wunderground v.1.15,2013-03-17 04:06:00,
2013-03-17 00:08:00,62.3,53.2,30.13,SW,216,3.0,4.0,72,0.00,,,0.00,0,Wunderground v.1.15,2013-03-17 04:08:00,
2013-03-17 00:14:00,62.0,53.2,30.14,SSW,211,2.0,4.0,73,0.00,,,0.00,0,Wunderground v.1.15,2013-03-17 04:14:00,
2013-03-17 00:20:00,61.8,53.4,30.14,SW,214,2.0,2.0,74,0.00,,,0.00,0,Wunderground v.1.15,2013-03-17 04:20:00,
2013-03-17 00:26:00,61.6,53.2,30.14,SSW,207,2.0,2.0,74,0.00,,,0.00,0,Wunderground v.1.15,2013-03-17 04:26:00,
2013-03-17 00:32:00,61.3,53.3,30.14,SSW,211,2.0,2.0,75,0.00,,,0.00,0,Wunderground v.1.15,2013-03-17 04:32:00,
2013-03-17 00:38:00,61.0,53.4,30.14,SSW,213,3.0,5.0,76,0.00,,,0.00,0,Wunderground v.1.15,2013-03-17 04:38:00,
2013-03-17 00:44:00,60.7,53.1,30.14,SSW,194,3.0,4.0,76,0.00,,,0.00,0,Wunderground v.1.15,2013-03-17 04:44:00,
2013-03-17 00:50:00,60.3,53.1,30.14,SSW,209,2.0,2.0,77,0.00,,,0.00,0,Wunderground v.1.15,2013-03-17 04:50:00,
2013-03-17 00:56:00,60.0,53.1,30.14,SSW,212,2.0,4.0,78,0.00,,,0.00,0,Wunderground v.1.15,2013-03-17 04:56:00,
2013-03-17 01:02:00,59.7,52.8,30.14,SSW,200,2.0,2.0,78,0.00,,,0.00,0,Wunderground v.1.15,2013-03-17 05:02:00,
2013-03-17 01:08:00,59.4,52.9,30.13,SSW,207,2.0,6.0,79,0.00,,,0.00,0,Wunderground v.1.15,2013-03-17 05:08:00,
2013-03-17 01:14:00,59.0,52.5,30.13,SSW,207,2.0,2.0,79,0.00,,,0.00,0,Wunderground v.1.15,2013-03-17 05:14:00,
2013-03-17 01:20:00,58.7,52.2,30.12,SSW,206,1.0,2.0,79,0.00,,,0.00,0,Wunderground v.1.15,2013-03-17 05:20:00,
2013-03-17 01:26:00,58.5,52.0,30.13,SSW,208,1.0,2.0,79,0.00,,,0.00,0,Wunderground v.1.15,2013-03-17 05:26:00,
2013-03-17 01:32:00,58.4,51.9,30.13,SSW,209,1.0,2.0,79,0.00,,,0.00,0,Wunderground v.1.15,2013-03-17 05:32:00,
2013-03-17 01:38:00,58.2,51.7,30.13,SSW,207,1.0,7.0,79,0.00,,,0.00,0,Wunderground v.1.15,2013-03-17 05:38:00,
2013-03-17 01:44:00,58.1,51.6,30.13,SSW,208,1.0,1.0,79,0.00,,,0.00,0,Wunderground v.1.15,2013-03-17 05:44:00,
2013-03-17 01:50:00,58.0,51.5,30.13,SSW,208,0.0,0.0,79,0.00,,,0.00,0,Wunderground v.1.15,2013-03-17 05:50:00,
2013-03-17 01:56:00,57.9,51.4,30.12,SSW,208,0.0,0.0,79,0.00,,,0.00,0,Wunderground v.1.15,2013-03-17 05:56:00,
2013-03-17 02:02:00,57.8,51.0,30.12,SSW,208,0.0,0.0,78,0.00,,,0.00,0,Wunderground v.1.15,2013-03-17 06:02:00,
2013-03-17 02:08:00,57.6,51.1,30.12,SSW,208,0.0,0.0,79,0.00,,,0.00,0,Wunderground v.1.15,2013-03-17 06:08:00,
2013-03-17 02:14:00,57.5,50.7,30.12,SSW,208,0.0,0.0,78,0.00,,,0.00,0,Wunderground v.1.15,2013-03-17 06:14:00,
2013-03-17 02:20:00,57.3,50.5,30.12,SSW,208,0.0,0.0,78,0.00,,,0.00,0,Wunderground v.1.15,2013-03-17 06:20:00,
2013-03-17 02:26:00,57.1,50.6,30.12,SSW,208,0.0,0.0,79,0.00,,,0.00,0,Wunderground v.1.15,2013-03-17 06:26:00,
2013-03-17 02:32:00,56.9,50.5,30.12,SSW,208,0.0,0.0,79,0.00,,,0.00,0,Wunderground v.1.15,2013-03-17 06:32:00,
2013-03-17 02:38:00,56.7,50.3,30.12,SSW,208,0.0,0.0,79,0.00,,,0.00,0,Wunderground v.1.15,2013-03-17 06:38:00,
2013-03-17 02:44:00,56.5,50.1,30.12,SSW,208,0.0,0.0,79,0.00,,,0.00,0,Wunderground v.1.15,2013-03-17 06:44:00,
2013-03-17 02:50:00,56.2,49.8,30.12,SSW,208,0.0,0.0,79,0.00,,,0.00,0,Wunderground v.1.15,2013-03-17 06:50:00,
2013-03-17 02:56:00,55.9,49.8,30.12,SSW,208,0.0,0.0,80,0.00,,,0.00,0,Wunderground v.1.15,2013-03-17 06:56:00,
2013-03-17 03:02:00,55.7,49.6,30.12,SSW,208,0.0,0.0,80,0.00,,,0.00,0,Wunderground v.1.15,2013-03-17 07:02:00,
2013-03-17 03:08:00,55.4,49.7,30.12,SSW,208,0.0,0.0,81,0.00,,,0.00,0,Wunderground v.1.15,2013-03-17 07:08:00,
2013-03-17 03:14:00,55.3,49.6,30.11,SSW,208,0.0,0.0,81,0.00,,,0.00,0,Wunderground v.1.15,2013-03-17 07:14:00,
2013-03-17 03:20:00,55.2,49.5,30.11,SSW,208,0.0,0.0,81,0.00,,,0.00,0,Wunderground v.1.15,2013-03-17 07:20:00,
2013-03-17 03:26:00,55.1,49.4,30.11,SSW,208,0.0,0.0,81,0.00,,,0.00,0,Wunderground v.1.15,2013-03-17 07:26:00,
2013-03-17 03:32:00,55.0,49.3,30.11,SSW,208,0.0,0.0,81,0.00,,,0.00,0,Wunderground v.1.15,2013-03-17 07:32:00,
2013-03-17 03:38:00,54.9,49.2,30.11,SSW,208,0.0,0.0,81,0.00,,,0.00,0,Wunderground v.1.15,2013-03-17 07:38:00,
2013-03-17 03:44:00,54.8,49.1,30.11,SSW,208,0.0,0.0,81,0.00,,,0.00,0,Wunderground v.1.15,2013-03-17 07:44:00,
2013-03-17 03:50:00,54.6,48.9,30.10,SSW,208,0.0,0.0,81,0.00,,,0.00,0,Wunderground v.1.15,2013-03-17 07:50:00,
2013-03-17 03:56:00,54.5,48.8,30.10,SSW,208,0.0,0.0,81,0.00,,,0.00,0,Wunderground v.1.15,2013-03-17 07:56:00,
2013-03-17 04:02:00,54.4,48.7,30.10,SSW,208,0.0,0.0,81,0.00,,,0.00,0,Wunderground v.1.15,2013-03-17 08:02:00,
2013-03-17 04:08:00,54.2,48.5,30.10,SSW,208,0.0,0.0,81,0.00,,,0.00,0,Wunderground v.1.15,2013-03-17 08:08:00,
2013-03-17 04:14:00,54.0,48.3,30.10,SSW,208,0.0,0.0,81,0.00,,,0.00,0,Wunderground v.1.15,2013-03-17 08:14:00,
2013-03-17 04:20:00,53.7,48.0,30.10,SSW,208,0.0,0.0,81,0.00,,,0.00,0,Wunderground v.1.15,2013-03-17 08:20:00,
2013-03-17 04:26:00,53.5,48.1,30.10,SSW,208,0.0,0.0,82,0.00,,,0.00,0,Wunderground v.1.15,2013-03-17 08:26:00,
2013-03-17 04:32:00,53.2,47.8,30.10,SSW,208,0.0,0.0,82,0.00,,,0.00,0,Wunderground v.1.15,2013-03-17 08:32:00,
2013-03-17 04:38:00,53.1,47.7,30.10,SSW,208,0.0,0.0,82,0.00,,,0.00,0,Wunderground v.1.15,2013-03-17 08:38:00,
2013-03-17 04:44:00,52.8,47.8,30.10,SSW,208,0.0,0.0,83,0.00,,,0.00,0,Wunderground v.1.15,2013-03-17 08:44:00,
2013-03-17 04:50:00,52.6,47.6,30.10,SSW,208,0.0,0.0,83,0.00,,,0.00,0,Wunderground v.1.15,2013-03-17 08:50:00,
2013-03-17 04:56:00,52.5,47.8,30.10,SSW,208,0.0,0.0,84,0.00,,,0.00,0,Wunderground v.1.15,2013-03-17 08:56:00,
2013-03-17 05:02:00,52.3,47.9,30.10,SSW,208,0.0,0.0,85,0.00,,,0.00,0,Wunderground v.1.15,2013-03-17 09:02:00,
2013-03-17 05:08:00,52.1,47.7,30.10,SSW,208,0.0,0.0,85,0.00,,,0.00,0,Wunderground v.1.15,2013-03-17 09:08:00,
2013-03-17 05:14:00,51.9,47.5,30.10,SSW,208,0.0,0.0,85,0.00,,,0.00,0,Wunderground v.1.15,2013-03-17 09:14:00,
2013-03-17 05:20:00,51.7,47.6,30.10,SSW,208,0.0,0.0,86,0.00,,,0.00,0,Wunderground v.1.15,2013-03-17 09:20:00,
2013-03-17 05:26:00,51.6,47.5,30.11,SSW,208,0.0,0.0,86,0.00,,,0.00,0,Wunderground v.1.15,2013-03-17 09:26:00,
2013-03-17 05:32:00,51.7,48.0,30.11,SSW,208,0.0,0.0,87,0.00,,,0.00,0,Wunderground v.1.15,2013-03-17 09:32:00,
2013-03-17 05:38:00,51.8,48.4,30.11,SSW,208,0.0,0.0,88,0.00,,,0.00,0,Wunderground v.1.15,2013-03-17 09:38:00,
2013-03-17 05:44:00,51.8,48.4,30.11,SSW,208,0.0,0.0,88,0.00,,,0.00,0,Wunderground v.1.15,2013-03-17 09:44:00,
2013-03-17 05:50:00,51.7,48.0,30.11,SSW,208,0.0,0.0,87,0.00,,,0.00,0,Wunderground v.1.15,2013-03-17 09:50:00,
2013-03-17 05:56:00,51.7,48.0,30.11,SSW,208,0.0,0.0,87,0.00,,,0.00,0,Wunderground v.1.15,2013-03-17 09:56:00,
2013-03-17 06:02:00,51.6,47.9,30.11,SSW,208,0.0,0.0,87,0.00,,,0.00,0,Wunderground v.1.15,2013-03-17 10:02:00,
2013-03-17 06:08:00,51.5,47.8,30.11,SSW,208,0.0,0.0,87,0.00,,,0.00,0,Wunderground v.1.15,2013-03-17 10:08:00,
2013-03-17 06:14:00,51.4,47.7,30.12,SSW,208,0.0,0.0,87,0.00,,,0.00,0,Wunderground v.1.15,2013-03-17 10:14:00,
2013-03-17 06:20:00,51.2,47.5,30.12,SSW,208,0.0,0.0,87,0.00,,,0.00,0,Wunderground v.1.15,2013-03-17 10:20:00,
2013-03-17 06:26:00,51.2,47.8,30.12,SSW,208,0.0,0.0,88,0.00,,,0.00,0,Wunderground v.1.15,2013-03-17 10:26:00,
2013-03-17 06:32:00,51.4,48.3,30.12,SSW,209,0.0,0.0,89,0.00,,,0.00,0,Wunderground v.1.15,2013-03-17 10:32:00,
2013-03-17 06:38:00,51.5,48.4,30.12,SSW,209,0.0,0.0,89,0.00,,,0.00,0,Wunderground v.1.15,2013-03-17 10:38:00,
2013-03-17 06:44:00,51.5,48.4,30.12,SSW,209,0.0,0.0,89,0.00,,,0.00,0,Wunderground v.1.15,2013-03-17 10:44:00,
2013-03-17 06:50:00,51.6,48.2,30.13,SSW,209,0.0,0.0,88,0.00,,,0.00,0,Wunderground v.1.15,2013-03-17 10:50:00,
2013-03-17 06:56:00,51.6,48.2,30.13,SSW,209,0.0,0.0,88,0.00,,,0.00,0,Wunderground v.1.15,2013-03-17 10:56:00,
2013-03-17 07:02:00,51.5,48.1,30.13,SSW,209,0.0,0.0,88,0.00,,,0.00,0,Wunderground v.1.15,2013-03-17 11:02:00,
2013-03-17 07:08:00,51.5,48.1,30.14,SSW,209,0.0,0.0,88,0.00,,,0.00,0,Wunderground v.1.15,2013-03-17 11:08:00,
2013-03-17 07:14:00,51.3,47.9,30.14,SSW,209,0.0,0.0,88,0.00,,,0.00,0,Wunderground v.1.15,2013-03-17 11:14:00,
2013-03-17 07:20:00,51.2,47.5,30.14,SSW,209,0.0,0.0,87,0.00,,,0.00,0,Wunderground v.1.15,2013-03-17 11:20:00,
2013-03-17 07:26:00,51.2,47.8,30.14,SSW,209,0.0,0.0,88,0.00,,,0.00,5,Wunderground v.1.15,2013-03-17 11:26:00,
2013-03-17 07:32:00,51.0,47.6,30.15,SSW,209,0.0,0.0,88,0.00,,,0.00,9,Wunderground v.1.15,2013-03-17 11:32:00,
2013-03-17 07:38:00,51.0,47.6,30.15,SSW,209,0.0,0.0,88,0.00,,,0.00,16,Wunderground v.1.15,2013-03-17 11:38:00,
2013-03-17 07:44:00,51.0,47.6,30.15,SSW,209,0.0,0.0,88,0.00,,,0.00,28,Wunderground v.1.15,2013-03-17 11:44:00,
2013-03-17 07:50:00,51.0,47.6,30.16,SSW,209,0.0,0.0,88,0.00,,,0.00,35,Wunderground v.1.15,2013-03-17 11:50:00,
2013-03-17 07:56:00,51.1,48.0,30.16,SSW,209,0.0,0.0,89,0.00,,,0.00,58,Wunderground v.1.15,2013-03-17 11:56:00,
2013-03-17 08:02:00,51.4,48.6,30.16,SSW,209,0.0,0.0,90,0.00,,,0.00,69,Wunderground v.1.15,2013-03-17 12:02:00,
2013-03-17 08:08:00,51.9,49.1,30.16,SSW,209,0.0,0.0,90,0.00,,,0.00,84,Wunderground v.1.15,2013-03-17 12:08:00,
2013-03-17 08:14:00,52.4,49.8,30.16,SSW,209,0.0,0.0,91,0.00,,,0.00,102,Wunderground v.1.15,2013-03-17 12:14:00,
2013-03-17 08:20:00,53.2,50.6,30.16,SSW,209,0.0,0.0,91,0.00,,,0.00,109,Wunderground v.1.15,2013-03-17 12:20:00,
2013-03-17 08:26:00,54.0,51.1,30.16,SSW,209,0.0,0.0,90,0.00,,,0.00,123,Wunderground v.1.15,2013-03-17 12:26:00,
2013-03-17 08:32:00,54.8,51.6,30.16,SSW,209,0.0,0.0,89,0.00,,,0.00,69,Wunderground v.1.15,2013-03-17 12:32:00,
2013-03-17 08:38:00,55.5,52.0,30.17,SSW,209,0.0,0.0,88,0.00,,,0.00,172,Wunderground v.1.15,2013-03-17 12:38:00,
2013-03-17 08:44:00,56.2,52.4,30.17,SSW,209,0.0,0.0,87,0.00,,,0.00,220,Wunderground v.1.15,2013-03-17 12:44:00,
2013-03-17 08:50:00,57.2,53.0,30.17,SSW,209,0.0,0.0,86,0.00,,,0.00,267,Wunderground v.1.15,2013-03-17 12:50:00,
2013-03-17 08:56:00,58.2,53.4,30.17,SSW,209,0.0,0.0,84,0.00,,,0.00,278,Wunderground v.1.15,2013-03-17 12:56:00,
2013-03-17 09:02:00,59.3,53.8,30.17,SSW,209,0.0,0.0,82,0.00,,,0.00,158,Wunderground v.1.15,2013-03-17 13:02:00,
2013-03-17 09:08:00,60.3,54.1,30.17,SSW,209,0.0,0.0,80,0.00,,,0.00,158,Wunderground v.1.15,2013-03-17 13:08:00,
2013-03-17 09:14:00,60.9,54.3,30.17,SSW,209,0.0,0.0,79,0.00,,,0.00,178,Wunderground v.1.15,2013-03-17 13:14:00,
2013-03-17 09:20:00,61.7,54.8,30.17,SSW,209,0.0,0.0,78,0.00,,,0.00,174,Wunderground v.1.15,2013-03-17 13:20:00,
2013-03-17 09:26:00,62.3,54.6,30.18,SSW,209,0.0,0.0,76,0.00,,,0.00,262,Wunderground v.1.15,2013-03-17 13:26:00,
2013-03-17 09:32:00,63.5,55.4,30.18,SSW,209,0.0,0.0,75,0.00,,,0.00,353,Wunderground v.1.15,2013-03-17 13:32:00,
2013-03-17 09:38:00,64.7,56.2,30.18,SSW,209,0.0,0.0,74,0.00,,,0.00,378,Wunderground v.1.15,2013-03-17 13:38:00,
2013-03-17 09:44:00,65.7,56.0,30.18,SSW,209,0.0,0.0,71,0.00,,,0.00,399,Wunderground v.1.15,2013-03-17 13:44:00,
2013-03-17 09:50:00,66.6,55.3,30.18,SSW,209,0.0,0.0,67,0.00,,,0.00,418,Wunderground v.1.15,2013-03-17 13:50:00,
2013-03-17 09:56:00,67.3,55.1,30.18,SSW,209,0.0,0.0,65,0.00,,,0.00,446,Wunderground v.1.15,2013-03-17 13:56:00,
2013-03-17 10:02:00,68.5,56.7,30.18,SSW,209,0.0,0.0,66,0.00,,,0.00,490,Wunderground v.1.15,2013-03-17 14:02:00,
2013-03-17 10:08:00,69.4,55.4,30.18,SSW,209,0.0,0.0,61,0.00,,,0.00,547,Wunderground v.1.15,2013-03-17 14:08:00,
2013-03-17 10:14:00,70.0,54.5,30.18,SW,234,1.0,5.0,58,0.00,,,0.00,610,Wunderground v.1.15,2013-03-17 14:14:00,
2013-03-17 10:20:00,70.3,53.9,30.17,SW,221,1.0,1.0,56,0.00,,,0.00,520,Wunderground v.1.15,2013-03-17 14:20:00,
2013-03-17 10:26:00,70.3,56.2,30.17,NE,53,0.0,2.0,61,0.00,,,0.00,355,Wunderground v.1.15,2013-03-17 14:26:00,
2013-03-17 10:32:00,69.4,56.7,30.17,NE,53,0.0,0.0,64,0.00,,,0.00,580,Wunderground v.1.15,2013-03-17 14:32:00,
2013-03-17 10:38:00,68.8,57.0,30.17,NE,53,0.0,0.0,66,0.00,,,0.00,388,Wunderground v.1.15,2013-03-17 14:38:00,
2013-03-17 10:44:00,68.2,57.2,30.17,ENE,57,0.0,0.0,68,0.00,,,0.00,322,Wunderground v.1.15,2013-03-17 14:44:00,
2013-03-17 10:50:00,68.1,55.0,30.17,ENE,63,1.0,1.0,63,0.00,,,0.00,707,Wunderground v.1.15,2013-03-17 14:50:00,
2013-03-17 10:56:00,69.0,55.0,30.17,ENE,71,0.0,1.0,61,0.00,,,0.00,772,Wunderground v.1.15,2013-03-17 14:56:00,
2013-03-17 11:02:00,69.1,54.2,30.17,East,83,1.0,4.0,59,0.00,,,0.00,566,Wunderground v.1.15,2013-03-17 15:02:00,
2013-03-17 11:08:00,69.2,53.8,30.17,East,85,1.0,4.0,58,0.00,,,0.00,378,Wunderground v.1.15,2013-03-17 15:08:00,
2013-03-17 11:14:00,69.1,53.7,30.17,East,94,1.0,1.0,58,0.00,,,0.00,436,Wunderground v.1.15,2013-03-17 15:14:00,
2013-03-17 11:20:00,69.2,54.3,30.17,East,83,0.0,0.0,59,0.00,,,0.00,323,Wunderground v.1.15,2013-03-17 15:20:00,
2013-03-17 11:26:00,69.0,55.4,30.17,East,87,1.0,1.0,62,0.00,,,0.00,357,Wunderground v.1.15,2013-03-17 15:26:00,
2013-03-17 11:32:00,69.2,55.6,30.18,East,99,1.0,4.0,62,0.00,,,0.00,322,Wunderground v.1.15,2013-03-17 15:32:00,
2013-03-17 11:38:00,69.3,56.2,30.18,East,83,2.0,4.0,63,0.00,,,0.00,258,Wunderground v.1.15,2013-03-17 15:38:00,
2013-03-17 11:44:00,69.2,56.1,30.17,East,83,1.0,2.0,63,0.00,,,0.00,248,Wunderground v.1.15,2013-03-17 15:44:00,
2013-03-17 11:50:00,69.2,56.1,30.17,East,92,1.0,3.0,63,0.00,,,0.00,353,Wunderground v.1.15,2013-03-17 15:50:00,
2013-03-17 11:56:00,69.5,55.9,30.17,ENE,74,2.0,4.0,62,0.00,,,0.00,744,Wunderground v.1.15,2013-03-17 15:56:00,
2013-03-17 12:02:00,69.7,57.0,30.17,East,101,5.0,8.0,64,0.00,,,0.00,457,Wunderground v.1.15,2013-03-17 16:02:00,
2013-03-17 12:08:00,70.3,57.1,30.17,East,84,5.0,8.0,63,0.00,,,0.00,624,Wunderground v.1.15,2013-03-17 16:08:00,
2013-03-17 12:14:00,70.4,56.3,30.17,ESE,105,4.0,6.0,61,0.00,,,0.00,547,Wunderground v.1.15,2013-03-17 16:14:00,
2013-03-17 12:20:00,70.2,56.1,30.17,ESE,107,4.0,4.0,61,0.00,,,0.00,847,Wunderground v.1.15,2013-03-17 16:20:00,
2013-03-17 12:26:00,70.5,55.9,30.17,ESE,106,4.0,4.0,60,0.00,,,0.00,712,Wunderground v.1.15,2013-03-17 16:26:00,
2013-03-17 12:32:00,71.3,55.8,30.16,East,100,3.0,4.0,58,0.00,,,0.00,937,Wunderground v.1.15,2013-03-17 16:32:00,
2013-03-17 12:38:00,70.9,56.8,30.16,ESE,106,3.0,4.0,61,0.00,,,0.00,473,Wunderground v.1.15,2013-03-17 16:38:00,
2013-03-17 12:44:00,71.7,56.1,30.16,SSW,193,2.0,4.0,58,0.00,,,0.00,819,Wunderground v.1.15,2013-03-17 16:44:00,
2013-03-17 12:50:00,73.2,54.0,30.16,SSE,150,5.0,9.0,51,0.00,,,0.00,933,Wunderground v.1.15,2013-03-17 16:50:00,
2013-03-17 12:56:00,74.3,53.9,30.15,SSW,194,6.0,9.0,49,0.00,,,0.00,893,Wunderground v.1.15,2013-03-17 16:56:00,
2013-03-17 13:02:00,75.6,54.5,30.14,SW,217,5.0,6.0,48,0.00,,,0.00,905,Wunderground v.1.15,2013-03-17 17:02:00,
2013-03-17 13:08:00,75.1,54.1,30.14,SSW,198,5.0,13.0,48,0.00,,,0.00,953,Wunderground v.1.15,2013-03-17 17:08:00,
2013-03-17 13:14:00,75.8,54.7,30.13,SSW,200,7.0,16.0,48,0.00,,,0.00,947,Wunderground v.1.15,2013-03-17 17:14:00,
2013-03-17 13:20:00,75.7,54.0,30.13,South,191,7.0,9.0,47,0.00,,,0.00,954,Wunderground v.1.15,2013-03-17 17:20:00,
2013-03-17 13:26:00,75.7,54.6,30.13,SSE,151,6.0,11.0,48,0.00,,,0.00,965,Wunderground v.1.15,2013-03-17 17:26:00,
2013-03-17 13:32:00,75.9,54.2,30.12,SSW,202,6.0,7.0,47,0.00,,,0.00,956,Wunderground v.1.15,2013-03-17 17:32:00,
2013-03-17 13:38:00,76.2,53.9,30.11,South,182,6.0,15.0,46,0.00,,,0.00,860,Wunderground v.1.15,2013-03-17 17:38:00,
2013-03-17 13:44:00,76.3,55.2,30.11,South,171,6.0,8.0,48,0.00,,,0.00,947,Wunderground v.1.15,2013-03-17 17:44:00,
2013-03-17 13:50:00,76.9,54.5,30.11,SSW,211,5.0,5.0,46,0.00,,,0.00,1007,Wunderground v.1.15,2013-03-17 17:50:00,
2013-03-17 13:56:00,76.4,54.7,30.11,South,175,6.0,11.0,47,0.00,,,0.00,425,Wunderground v.1.15,2013-03-17 17:56:00,
2013-03-17 14:02:00,74.2,56.5,30.11,ESE,103,5.0,6.0,54,0.00,,,0.00,508,Wunderground v.1.15,2013-03-17 18:02:00,
2013-03-17 14:08:00,73.2,56.6,30.10,East,83,5.0,9.0,56,0.00,,,0.00,1028,Wunderground v.1.15,2013-03-17 18:08:00,
2013-03-17 14:14:00,73.3,57.6,30.10,SE,124,5.0,5.0,58,0.00,,,0.00,967,Wunderground v.1.15,2013-03-17 18:14:00,
2013-03-17 14:20:00,73.0,57.3,30.10,East,81,6.0,6.0,58,0.00,,,0.00,1125,Wunderground v.1.15,2013-03-17 18:20:00,
2013-03-17 14:26:00,74.4,58.7,30.10,ESE,122,4.0,9.0,58,0.00,,,0.00,1190,Wunderground v.1.15,2013-03-17 18:26:00,
2013-03-17 14:32:00,73.7,58.0,30.09,SE,130,4.0,8.0,58,0.00,,,0.00,1095,Wunderground v.1.15,2013-03-17 18:32:00,
2013-03-17 14:38:00,72.7,58.5,30.09,East,86,6.0,10.0,61,0.00,,,0.00,831,Wunderground v.1.15,2013-03-17 18:38:00,
2013-03-17 14:44:00,72.9,58.7,30.08,ESE,118,5.0,10.0,61,0.00,,,0.00,969,Wunderground v.1.15,2013-03-17 18:44:00,
2013-03-17 14:50:00,72.3,58.1,30.08,ESE,107,5.0,5.0,61,0.00,,,0.00,956,Wunderground v.1.15,2013-03-17 18:50:00,
2013-03-17 14:56:00,72.5,58.3,30.08,ESE,121,6.0,11.0,61,0.00,,,0.00,919,Wunderground v.1.15,2013-03-17 18:56:00,
2013-03-17 15:02:00,72.6,58.4,30.08,East,82,5.0,6.0,61,0.00,,,0.00,933,Wunderground v.1.15,2013-03-17 19:02:00,
2013-03-17 15:08:00,72.1,58.4,30.08,East,82,6.0,6.0,62,0.00,,,0.00,898,Wunderground v.1.15,2013-03-17 19:08:00,
2013-03-17 15:14:00,71.8,59.0,30.08,ESE,104,7.0,12.0,64,0.00,,,0.00,951,Wunderground v.1.15,2013-03-17 19:14:00,
2013-03-17 15:20:00,71.8,59.0,30.07,East,99,8.0,8.0,64,0.00,,,0.00,984,Wunderground v.1.15,2013-03-17 19:20:00,
2013-03-17 15:26:00,72.1,58.4,30.07,ESE,122,8.0,10.0,62,0.00,,,0.00,846,Wunderground v.1.15,2013-03-17 19:26:00,
2013-03-17 15:32:00,71.9,59.1,30.08,East,101,8.0,8.0,64,0.00,,,0.00,499,Wunderground v.1.15,2013-03-17 19:32:00,
2013-03-17 15:38:00,72.3,59.9,30.07,ESE,115,7.0,9.0,65,0.00,,,0.00,884,Wunderground v.1.15,2013-03-17 19:38:00,
2013-03-17 15:44:00,72.0,58.7,30.07,SE,126,7.0,10.0,63,0.00,,,0.00,592,Wunderground v.1.15,2013-03-17 19:44:00,
2013-03-17 15:50:00,72.5,58.7,30.07,ESE,119,6.0,9.0,62,0.00,,,0.00,768,Wunderground v.1.15,2013-03-17 19:50:00,
2013-03-17 15:56:00,72.2,58.0,30.07,ESE,122,7.0,14.0,61,0.00,,,0.00,788,Wunderground v.1.15,2013-03-17 19:56:00,
2013-03-17 16:02:00,72.0,59.2,30.06,ESE,113,8.0,9.0,64,0.00,,,0.00,805,Wunderground v.1.15,2013-03-17 20:02:00,
2013-03-17 16:08:00,72.5,59.2,30.06,ESE,122,7.0,13.0,63,0.00,,,0.00,768,Wunderground v.1.15,2013-03-17 20:08:00,
2013-03-17 16:14:00,72.0,59.2,30.07,SE,124,8.0,9.0,64,0.00,,,0.00,529,Wunderground v.1.15,2013-03-17 20:14:00,
2013-03-17 16:20:00,71.5,59.5,30.06,SSE,148,8.0,10.0,66,0.00,,,0.00,659,Wunderground v.1.15,2013-03-17 20:20:00,
2013-03-17 16:26:00,72.2,60.2,30.07,ESE,122,8.0,12.0,66,0.00,,,0.00,777,Wunderground v.1.15,2013-03-17 20:26:00,
2013-03-17 16:32:00,72.0,60.0,30.07,ESE,123,7.0,8.0,66,0.00,,,0.00,612,Wunderground v.1.15,2013-03-17 20:32:00,
2013-03-17 16:38:00,72.2,60.2,30.07,ESE,121,7.0,8.0,66,0.00,,,0.00,548,Wunderground v.1.15,2013-03-17 20:38:00,
2013-03-17 16:44:00,72.1,60.1,30.07,ESE,121,8.0,9.0,66,0.00,,,0.00,313,Wunderground v.1.15,2013-03-17 20:44:00,
2013-03-17 16:50:00,71.7,59.7,30.06,ESE,111,9.0,12.0,66,0.00,,,0.00,281,Wunderground v.1.15,2013-03-17 20:50:00,
2013-03-17 16:56:00,71.5,60.0,30.06,SE,133,8.0,12.0,67,0.00,,,0.00,345,Wunderground v.1.15,2013-03-17 20:56:00,
2013-03-17 17:02:00,71.6,60.5,30.06,SE,142,7.0,11.0,68,0.00,,,0.00,394,Wunderground v.1.15,2013-03-17 21:02:00,
2013-03-17 17:08:00,71.6,60.5,30.07,SSE,149,8.0,13.0,68,0.00,,,0.00,399,Wunderground v.1.15,2013-03-17 21:08:00,
2013-03-17 17:14:00,71.6,60.1,30.07,East,101,8.0,8.0,67,0.00,,,0.00,424,Wunderground v.1.15,2013-03-17 21:14:00,
2013-03-17 17:20:00,71.5,60.4,30.07,SE,138,7.0,7.0,68,0.00,,,0.00,359,Wunderground v.1.15,2013-03-17 21:20:00,
2013-03-17 17:26:00,71.3,60.6,30.07,SE,146,6.0,11.0,69,0.00,,,0.00,276,Wunderground v.1.15,2013-03-17 21:26:00,
2013-03-17 17:32:00,71.1,60.4,30.07,SE,137,7.0,10.0,69,0.00,,,0.00,192,Wunderground v.1.15,2013-03-17 21:32:00,
2013-03-17 17:38:00,70.7,60.4,30.07,SSE,150,8.0,11.0,70,0.00,,,0.00,149,Wunderground v.1.15,2013-03-17 21:38:00,
2013-03-17 17:44:00,70.5,60.6,30.06,SE,125,8.0,9.0,71,0.00,,,0.00,120,Wunderground v.1.15,2013-03-17 21:44:00,
2013-03-17 17:50:00,70.4,60.1,30.06,ESE,116,7.0,11.0,70,0.00,,,0.00,95,Wunderground v.1.15,2013-03-17 21:50:00,
2013-03-17 17:56:00,70.3,60.4,30.06,SSE,152,7.0,11.0,71,0.00,,,0.00,93,Wunderground v.1.15,2013-03-17 21:56:00,
2013-03-17 18:02:00,70.1,60.3,30.06,SE,142,7.0,9.0,71,0.00,,,0.00,81,Wunderground v.1.15,2013-03-17 22:02:00,
2013-03-17 18:08:00,70.0,60.6,30.05,SSE,164,8.0,10.0,72,0.00,,,0.00,83,Wunderground v.1.15,2013-03-17 22:08:00,
2013-03-17 18:14:00,69.9,60.8,30.05,SE,134,7.0,8.0,73,0.00,,,0.00,190,Wunderground v.1.15,2013-03-17 22:14:00,
2013-03-17 18:20:00,70.0,60.6,30.05,SSE,148,6.0,6.0,72,0.00,,,0.00,183,Wunderground v.1.15,2013-03-17 22:20:00,
2013-03-17 18:26:00,70.3,60.8,30.05,SE,128,5.0,6.0,72,0.00,,,0.00,155,Wunderground v.1.15,2013-03-17 22:26:00,
2013-03-17 18:32:00,70.4,60.9,30.05,SE,128,5.0,8.0,72,0.00,,,0.00,81,Wunderground v.1.15,2013-03-17 22:32:00,
2013-03-17 18:38:00,70.2,60.7,30.06,South,169,6.0,10.0,72,0.00,,,0.00,67,Wunderground v.1.15,2013-03-17 22:38:00,
2013-03-17 18:44:00,70.0,60.9,30.05,ESE,119,6.0,6.0,73,0.00,,,0.00,65,Wunderground v.1.15,2013-03-17 22:44:00,
2013-03-17 18:50:00,69.9,61.2,30.05,SE,134,7.0,7.0,74,0.00,,,0.00,44,Wunderground v.1.15,2013-03-17 22:50:00,
2013-03-17 18:56:00,69.8,61.1,30.05,South,169,6.0,11.0,74,0.00,,,0.00,39,Wunderground v.1.15,2013-03-17 22:56:00,
2013-03-17 19:02:00,69.7,61.4,30.05,ESE,113,6.0,6.0,75,0.00,,,0.00,32,Wunderground v.1.15,2013-03-17 23:02:00,
2013-03-17 19:08:00,69.7,61.4,30.05,SE,130,5.0,12.0,75,0.00,,,0.00,23,Wunderground v.1.15,2013-03-17 23:08:00,
2013-03-17 19:14:00,69.6,61.7,30.04,ESE,113,6.0,7.0,76,0.00,,,0.00,16,Wunderground v.1.15,2013-03-17 23:14:00,
2013-03-17 19:20:00,69.5,62.0,30.04,SSE,155,5.0,5.0,77,0.00,,,0.00,11,Wunderground v.1.15,2013-03-17 23:20:00,
2013-03-17 19:26:00,69.5,62.0,30.04,ESE,118,4.0,9.0,77,0.00,,,0.00,5,Wunderground v.1.15,2013-03-17 23:26:00,
2013-03-17 19:32:00,69.4,62.2,30.05,SSE,153,5.0,6.0,78,0.00,,,0.00,0,Wunderground v.1.15,2013-03-17 23:32:00,
2013-03-17 19:38:00,69.3,62.1,30.05,SSE,147,5.0,7.0,78,0.00,,,0.00,0,Wunderground v.1.15,2013-03-17 23:38:00,
2013-03-17 19:44:00,69.3,61.8,30.05,SSE,153,6.0,9.0,77,0.00,,,0.00,0,Wunderground v.1.15,2013-03-17 23:44:00,
2013-03-17 19:50:00,69.4,61.1,30.05,SE,140,7.0,7.0,75,0.00,,,0.00,0,Wunderground v.1.15,2013-03-17 23:50:00,
2013-03-17 19:56:00,69.4,60.8,30.05,SE,137,5.0,7.0,74,0.00,,,0.00,0,Wunderground v.1.15,2013-03-17 23:56:00,
2013-03-17 20:02:00,69.5,60.5,30.06,SE,140,5.0,10.0,73,0.00,,,0.00,0,Wunderground v.1.15,2013-03-18 00:02:00,
2013-03-17 20:08:00,69.7,60.3,30.06,SSE,150,5.0,10.0,72,0.00,,,0.00,0,Wunderground v.1.15,2013-03-18 00:08:00,
2013-03-17 20:14:00,69.9,60.1,30.05,South,172,6.0,8.0,71,0.00,,,0.00,0,Wunderground v.1.15,2013-03-18 00:14:00,
2013-03-17 20:20:00,70.0,60.2,30.06,SSE,153,6.0,6.0,71,0.00,,,0.00,0,Wunderground v.1.15,2013-03-18 00:20:00,
2013-03-17 20:26:00,70.0,60.2,30.06,SSE,149,5.0,6.0,71,0.00,,,0.00,0,Wunderground v.1.15,2013-03-18 00:26:00,
2013-03-17 20:32:00,70.1,60.3,30.06,South,175,4.0,4.0,71,0.00,,,0.00,0,Wunderground v.1.15,2013-03-18 00:32:00,
2013-03-17 20:38:00,70.1,60.3,30.06,SSE,161,6.0,12.0,71,0.00,,,0.00,0,Wunderground v.1.15,2013-03-18 00:38:00,
2013-03-17 20:44:00,70.1,60.3,30.06,SSE,157,7.0,7.0,71,0.00,,,0.00,0,Wunderground v.1.15,2013-03-18 00:44:00,
2013-03-17 20:50:00,70.1,60.7,30.06,SE,145,5.0,5.0,72,0.00,,,0.00,0,Wunderground v.1.15,2013-03-18 00:50:00,
2013-03-17 20:56:00,70.1,60.7,30.06,SSE,167,6.0,7.0,72,0.00,,,0.00,0,Wunderground v.1.15,2013-03-18 00:56:00,
2013-03-17 21:02:00,70.1,60.3,30.06,SE,145,6.0,10.0,71,0.00,,,0.00,0,Wunderground v.1.15,2013-03-18 01:02:00,
2013-03-17 21:08:00,70.1,60.3,30.06,SE,140,7.0,10.0,71,0.00,,,0.00,0,Wunderground v.1.15,2013-03-18 01:08:00,
2013-03-17 21:14:00,70.1,59.9,30.07,SSE,158,7.0,7.0,70,0.00,,,0.00,0,Wunderground v.1.15,2013-03-18 01:14:00,
2013-03-17 21:20:00,70.1,59.9,30.07,SSE,167,7.0,7.0,70,0.00,,,0.00,0,Wunderground v.1.15,2013-03-18 01:20:00,
2013-03-17 21:26:00,70.1,59.9,30.07,SE,138,5.0,9.0,70,0.00,,,0.00,0,Wunderground v.1.15,2013-03-18 01:26:00,
2013-03-17 21:32:00,70.1,59.9,30.07,SE,144,5.0,7.0,70,0.00,,,0.00,0,Wunderground v.1.15,2013-03-18 01:32:00,
2013-03-17 21:38:00,70.0,59.8,30.08,SSE,155,5.0,11.0,70,0.00,,,0.00,0,Wunderground v.1.15,2013-03-18 01:38:00,
2013-03-17 21:44:00,70.0,59.8,30.08,SSW,194,6.0,10.0,70,0.00,,,0.00,0,Wunderground v.1.15,2013-03-18 01:44:00,
2013-03-17 21:50:00,70.0,59.8,30.08,SSE,150,5.0,8.0,70,0.00,,,0.00,0,Wunderground v.1.15,2013-03-18 01:50:00,
2013-03-17 21:56:00,70.0,59.8,30.08,SE,146,5.0,8.0,70,0.00,,,0.00,0,Wunderground v.1.15,2013-03-18 01:56:00,
2013-03-17 22:02:00,69.9,59.7,30.08,SSE,160,5.0,10.0,70,0.00,,,0.00,0,Wunderground v.1.15,2013-03-18 02:02:00,
2013-03-17 22:08:00,69.9,59.7,30.08,SSE,161,5.0,10.0,70,0.00,,,0.00,0,Wunderground v.1.15,2013-03-18 02:08:00,
2013-03-17 22:14:00,69.8,59.6,30.08,SSE,164,5.0,7.0,70,0.00,,,0.00,0,Wunderground v.1.15,2013-03-18 02:14:00,
2013-03-17 22:20:00,69.8,59.2,30.08,SSE,152,5.0,9.0,69,0.00,,,0.00,0,Wunderground v.1.15,2013-03-18 02:20:00,
2013-03-17 22:26:00,69.8,59.2,30.08,SSE,148,5.0,9.0,69,0.00,,,0.00,0,Wunderground v.1.15,2013-03-18 02:26:00,
2013-03-17 22:32:00,69.8,59.6,30.08,SE,141,4.0,4.0,70,0.00,,,0.00,0,Wunderground v.1.15,2013-03-18 02:32:00,
2013-03-17 22:38:00,69.7,59.5,30.09,SSE,154,4.0,6.0,70,0.00,,,0.00,0,Wunderground v.1.15,2013-03-18 02:38:00,
2013-03-17 22:44:00,69.7,59.5,30.09,SSE,165,5.0,6.0,70,0.00,,,0.00,0,Wunderground v.1.15,2013-03-18 02:44:00,
2013-03-17 22:50:00,69.7,59.5,30.09,South,170,5.0,6.0,70,0.00,,,0.00,0,Wunderground v.1.15,2013-03-18 02:50:00,
2013-03-17 22:56:00,69.7,59.5,30.09,SSE,148,4.0,6.0,70,0.00,,,0.00,0,Wunderground v.1.15,2013-03-18 02:56:00,
2013-03-17 23:02:00,69.6,59.4,30.09,South,171,4.0,4.0,70,0.00,,,0.00,0,Wunderground v.1.15,2013-03-18 03:02:00,
2013-03-17 23:08:00,69.6,59.4,30.09,South,169,2.0,4.0,70,0.00,,,0.00,0,Wunderground v.1.15,2013-03-18 03:08:00,
2013-03-17 23:14:00,69.5,59.3,30.09,SE,146,2.0,4.0,70,0.00,,,0.00,0,Wunderground v.1.15,2013-03-18 03:14:00,
2013-03-17 23:20:00,69.5,59.3,30.09,SE,140,3.0,3.0,70,0.00,,,0.00,0,Wunderground v.1.15,2013-03-18 03:20:00,
2013-03-17 23:26:00,69.4,59.2,30.09,South,171,3.0,6.0,70,0.00,,,0.00,0,Wunderground v.1.15,2013-03-18 03:26:00,
2013-03-17 23:32:00,69.3,59.5,30.09,SSE,164,1.0,3.0,71,0.00,,,0.00,0,Wunderground v.1.15,2013-03-18 03:32:00,
2013-03-17 23:38:00,69.3,59.5,30.09,SSE,165,1.0,3.0,71,0.00,,,0.00,0,Wunderground v.1.15,2013-03-18 03:38:00,
2013-03-17 23:44:00,69.2,59.4,30.10,South,173,1.0,3.0,71,0.00,,,0.00,0,Wunderground v.1.15,2013-03-18 03:44:00,
2013-03-17 23:50:00,69.1,59.3,30.10,SSE,159,2.0,6.0,71,0.00,,,0.00,0,Wunderground v.1.15,2013-03-18 03:50:00,
2013-03-17 23:56:00,69.1,59.3,30.10,SSE,163,2.0,7.0,71,0.00,,,0.00,0,Wunderground v.1.15,2013-03-18 03:56:00,